| time (UTC) | temp F | wind direction | speed MPH | gust MPH | rain 1hr in | rain 24hr in | rain mn in | humidity % | barometer mb |
| 20260505230452 | 69 | 220 | 2.0 | 2.0 | 0.00 | 0.00 | 0.00 | 62 | 1013.0 |
| 20260505225948 | 69 | 215 | 4.0 | 4.0 | 0.00 | 0.00 | 0.00 | 62 | 1013.1 |
| 20260505225446 | 69 | 156 | 2.0 | 2.0 | 0.00 | 0.00 | 0.00 | 62 | 1012.8 |
| 20260505224942 | 70 | 209 | 1.0 | 1.0 | 0.00 | 0.00 | 0.00 | 61 | 1012.8 |
| 20260505224439 | 70 | 181 | 0.0 | 0.0 | 0.00 | 0.00 | 0.00 | 61 | 1012.5 |
| 20260505223936 | 70 | 182 | 0.0 | 0.0 | 0.00 | 0.00 | 0.00 | 62 | 1012.6 |
| 20260505223433 | 70 | 157 | 4.0 | 6.0 | 0.00 | 0.00 | 0.00 | 61 | 1012.7 |
| 20260505222929 | 70 | 168 | 0.0 | 0.0 | 0.00 | 0.00 | 0.00 | 61 | 1012.5 |
| 20260505222425 | 70 | 235 | 1.0 | 3.0 | 0.00 | 0.00 | 0.00 | 62 | 1012.6 |
| 20260505221921 | 70 | 193 | 2.0 | 4.0 | 0.00 | 0.00 | 0.00 | 60 | 1012.8 |
| 20260505221419 | 70 | 224 | 0.0 | 1.0 | 0.00 | 0.00 | 0.00 | 61 | 1012.8 |
| 20260505220916 | 70 | 182 | 2.0 | 2.0 | 0.00 | 0.00 | 0.00 | 61 | 1012.6 |
| 20260505220413 | 71 | 138 | 5.0 | 8.0 | 0.00 | 0.00 | 0.00 | 59 | 1012.6 |
| 20260505215910 | 71 | 159 | 1.0 | 1.0 | 0.00 | 0.00 | 0.00 | 59 | 1012.3 |
| 20260505215408 | 71 | 177 | 1.0 | 2.0 | 0.00 | 0.00 | 0.00 | 58 | 1012.5 |
| 20260505214906 | 72 | 182 | 1.0 | 2.0 | 0.00 | 0.00 | 0.00 | 57 | 1012.5 |
| 20260505214403 | 73 | 184 | 1.0 | 2.0 | 0.00 | 0.00 | 0.00 | 57 | 1012.5 |
| 20260505213900 | 73 | 205 | 2.0 | 3.0 | 0.00 | 0.00 | 0.00 | 56 | 1012.5 |
| 20260505213358 | 73 | 160 | 3.0 | 4.0 | 0.00 | 0.00 | 0.00 | 55 | 1012.3 |
| 20260505212854 | 74 | 202 | 2.0 | 3.0 | 0.00 | 0.00 | 0.00 | 55 | 1012.3 |
| 20260505212351 | 74 | 195 | 3.0 | 6.0 | 0.00 | 0.00 | 0.00 | 55 | 1012.4 |
| 20260505211847 | 74 | 158 | 1.0 | 2.0 | 0.00 | 0.00 | 0.00 | 55 | 1012.2 |
| 20260505211345 | 74 | 199 | 1.0 | 2.0 | 0.00 | 0.00 | 0.00 | 56 | 1012.2 |
| 20260505210841 | 75 | 261 | 2.0 | 2.0 | 0.00 | 0.00 | 0.00 | 55 | 1012.5 |
| 20260505210338 | 75 | 167 | 1.0 | 2.0 | 0.00 | 0.00 | 0.00 | 54 | 1012.2 |
| 20260505205835 | 75 | 178 | 2.0 | 3.0 | 0.00 | 0.00 | 0.00 | 56 | 1012.3 |
| 20260505205334 | 75 | 184 | 2.0 | 3.0 | 0.00 | 0.00 | 0.00 | 56 | 1012.3 |
| 20260505204830 | 75 | 151 | 2.0 | 3.0 | 0.00 | 0.00 | 0.00 | 54 | 1012.3 |
| 20260505204328 | 75 | 196 | 2.0 | 2.0 | 0.00 | 0.00 | 0.00 | 56 | 1012.1 |
| 20260505203825 | 75 | 165 | 0.0 | 1.0 | 0.00 | 0.00 | 0.00 | 56 | 1012.4 |
| 20260505203321 | 75 | 200 | 3.0 | 3.0 | 0.00 | 0.00 | 0.00 | 55 | 1012.6 |
| 20260505202818 | 75 | 151 | 2.0 | 3.0 | 0.00 | 0.00 | 0.00 | 56 | 1012.7 |
| 20260505202314 | 75 | 133 | 0.0 | 1.0 | 0.00 | 0.00 | 0.00 | 56 | 1012.5 |
| 20260505201811 | 76 | 120 | 2.0 | 6.0 | 0.00 | 0.00 | 0.00 | 56 | 1012.6 |
| 20260505201308 | 76 | 154 | 1.0 | 1.0 | 0.00 | 0.00 | 0.00 | 55 | 1012.8 |
| 20260505200807 | 76 | 207 | 1.0 | 1.0 | 0.00 | 0.00 | 0.00 | 55 | 1012.7 |
| 20260505200303 | 76 | 160 | 2.0 | 3.0 | 0.00 | 0.00 | 0.00 | 55 | 1012.8 |
| 20260505195758 | 76 | 153 | 3.0 | 4.0 | 0.00 | 0.00 | 0.00 | 55 | 1012.9 |
| 20260505195256 | 76 | 158 | 2.0 | 2.0 | 0.00 | 0.00 | 0.00 | 58 | 1012.9 |
| 20260505194753 | 76 | 207 | 2.0 | 2.0 | 0.00 | 0.00 | 0.00 | 56 | 1012.9 |
| 20260505194250 | 75 | 207 | 3.0 | 7.0 | 0.00 | 0.00 | 0.00 | 56 | 1013.1 |
| 20260505193745 | 75 | 181 | 3.0 | 4.0 | 0.00 | 0.00 | 0.00 | 57 | 1013.2 |
| 20260505193243 | 75 | 182 | 2.0 | 3.0 | 0.00 | 0.00 | 0.00 | 56 | 1013.4 |
| 20260505192741 | 75 | 193 | 3.0 | 4.0 | 0.00 | 0.00 | 0.00 | 55 | 1013.2 |
| 20260505192239 | 75 | 210 | 1.0 | 2.0 | 0.00 | 0.00 | 0.00 | 57 | 1013.3 |
| 20260505191737 | 74 | 188 | 2.0 | 2.0 | 0.00 | 0.00 | 0.00 | 58 | 1013.3 |
| 20260505191235 | 76 | 126 | 1.0 | 2.0 | 0.00 | 0.00 | 0.00 | 56 | 1013.5 |
| 20260505190731 | 75 | 160 | 1.0 | 2.0 | 0.00 | 0.00 | 0.00 | 57 | 1013.5 |
| 20260505190231 | 76 | 207 | 2.0 | 3.0 | 0.00 | 0.00 | 0.00 | 55 | 1013.7 |
| 20260505185727 | 77 | 162 | 1.0 | 1.0 | 0.00 | 0.00 | 0.00 | 56 | 1014.0 |
| 20260505185224 | 77 | 159 | 2.0 | 3.0 | 0.00 | 0.00 | 0.00 | 56 | 1013.8 |
| 20260505184720 | 76 | 193 | 1.0 | 1.0 | 0.00 | 0.00 | 0.00 | 56 | 1013.6 |
| 20260505184218 | 77 | 195 | 4.0 | 4.0 | 0.00 | 0.00 | 0.00 | 53 | 1013.9 |
| 20260505183714 | 77 | 267 | 2.0 | 4.0 | 0.00 | 0.00 | 0.00 | 55 | 1013.9 |
| 20260505183212 | 76 | 202 | 1.0 | 3.0 | 0.00 | 0.00 | 0.00 | 57 | 1013.9 |
| 20260505182708 | 76 | 185 | 2.0 | 4.0 | 0.00 | 0.00 | 0.00 | 56 | 1013.9 |
| 20260505182205 | 77 | 179 | 2.0 | 2.0 | 0.00 | 0.00 | 0.00 | 54 | 1014.0 |
| 20260505181701 | 78 | 193 | 1.0 | 2.0 | 0.00 | 0.00 | 0.00 | 53 | 1014.0 |
| 20260505181159 | 78 | 180 | 1.0 | 2.0 | 0.00 | 0.00 | 0.00 | 53 | 1013.8 |
| 20260505180655 | 78 | 197 | 0.0 | 0.0 | 0.00 | 0.00 | 0.00 | 55 | 1013.8 |
| 20260505180152 | 78 | 211 | 0.0 | 1.0 | 0.00 | 0.00 | 0.00 | 53 | 1013.7 |
| 20260505175648 | 78 | 121 | 2.0 | 6.0 | 0.00 | 0.00 | 0.00 | 52 | 1014.0 |
| 20260505175145 | 78 | 134 | 4.0 | 6.0 | 0.00 | 0.00 | 0.00 | 53 | 1013.7 |
| 20260505174642 | 77 | 176 | 1.0 | 2.0 | 0.00 | 0.00 | 0.00 | 52 | 1013.9 |
| 20260505174137 | 78 | 196 | 2.0 | 3.0 | 0.00 | 0.00 | 0.00 | 52 | 1014.0 |
| 20260505173634 | 78 | 175 | 0.0 | 1.0 | 0.00 | 0.00 | 0.00 | 52 | 1013.9 |
| 20260505173131 | 78 | 177 | 1.0 | 1.0 | 0.00 | 0.00 | 0.00 | 51 | 1014.0 |
| 20260505172629 | 78 | 187 | 4.0 | 7.0 | 0.00 | 0.00 | 0.00 | 48 | 1014.0 |
| 20260505172125 | 78 | 193 | 0.0 | 1.0 | 0.00 | 0.00 | 0.00 | 49 | 1014.0 |
| 20260505171620 | 79 | 216 | 0.0 | 1.0 | 0.00 | 0.00 | 0.00 | 51 | 1014.1 |
| 20260505171118 | 78 | 52 | 4.0 | 4.0 | 0.00 | 0.00 | 0.00 | 50 | 1014.2 |
| 20260505170615 | 78 | 189 | 2.0 | 3.0 | 0.00 | 0.00 | 0.00 | 48 | 1014.0 |
| 20260505170111 | 77 | 153 | 2.0 | 2.0 | 0.00 | 0.00 | 0.00 | 51 | 1014.4 |
| 20260505165606 | 76 | 207 | 2.0 | 3.0 | 0.00 | 0.00 | 0.00 | 50 | 1014.4 |
| 20260505165102 | 77 | 205 | 3.0 | 4.0 | 0.00 | 0.00 | 0.00 | 51 | 1014.5 |
| 20260505164558 | 76 | 173 | 1.0 | 2.0 | 0.00 | 0.00 | 0.00 | 52 | 1014.6 |
| 20260505164056 | 76 | 148 | 3.0 | 4.0 | 0.00 | 0.00 | 0.00 | 52 | 1014.7 |
| 20260505163554 | 77 | 149 | 4.0 | 6.0 | 0.00 | 0.00 | 0.00 | 53 | 1014.6 |
| 20260505163051 | 76 | 211 | 0.0 | 1.0 | 0.00 | 0.00 | 0.00 | 57 | 1014.7 |
| 20260505162544 | 76 | 166 | 3.0 | 4.0 | 0.00 | 0.00 | 0.00 | 55 | 1014.7 |
| 20260505162041 | 76 | 241 | 3.0 | 8.0 | 0.00 | 0.00 | 0.00 | 53 | 1014.9 |
| 20260505161538 | 75 | 171 | 2.0 | 3.0 | 0.00 | 0.00 | 0.00 | 53 | 1014.7 |
| 20260505161035 | 75 | 157 | 1.0 | 1.0 | 0.00 | 0.00 | 0.00 | 55 | 1014.8 |
| 20260505160533 | 75 | 192 | 1.0 | 2.0 | 0.00 | 0.00 | 0.00 | 56 | 1014.7 |
| 20260505153009 | 74 | 168 | 2.0 | 2.0 | 0.00 | 0.00 | 0.00 | 55 | 1015.3 |
| 20260505152506 | 74 | 170 | 2.0 | 2.0 | 0.00 | 0.00 | 0.00 | 56 | 1015.2 |
| 20260505152002 | 75 | 204 | 1.0 | 1.0 | 0.00 | 0.00 | 0.00 | 55 | 1015.2 |
| 20260505151457 | 75 | 155 | 2.0 | 3.0 | 0.00 | 0.00 | 0.00 | 53 | 1015.3 |
| 20260505150954 | 74 | 185 | 4.0 | 4.0 | 0.00 | 0.00 | 0.00 | 54 | 1015.4 |
| 20260505150446 | 76 | 167 | 2.0 | 2.0 | 0.00 | 0.00 | 0.00 | 53 | 1015.4 |
| 20260505140415 | 72 | 173 | 2.0 | 2.0 | 0.00 | 0.00 | 0.00 | 58 | 1015.6 |
| 20260505124829 | 63 | 193 | 3.0 | 4.0 | 0.00 | 0.00 | 0.00 | 71 | 1015.4 |
| 20260505124326 | 64 | 162 | 0.0 | 0.0 | 0.00 | 0.00 | 0.00 | 71 | 1015.5 |
| 20260505123822 | 64 | 170 | 0.0 | 0.0 | 0.00 | 0.00 | 0.00 | 72 | 1015.5 |
| 20260505123319 | 64 | 166 | 0.0 | 0.0 | 0.00 | 0.00 | 0.00 | 73 | 1015.6 |
| 20260505122815 | 62 | 187 | 1.0 | 1.0 | 0.00 | 0.00 | 0.00 | 73 | 1015.7 |
| 20260505122313 | 63 | 176 | 2.0 | 3.0 | 0.00 | 0.00 | 0.00 | 72 | 1015.6 |
| 20260505121809 | 62 | 159 | 0.0 | 0.0 | 0.00 | 0.00 | 0.00 | 74 | 1015.8 |
| 20260505121306 | 61 | 177 | 1.0 | 1.0 | 0.00 | 0.00 | 0.00 | 76 | 1015.6 |
| 20260505120802 | 59 | 174 | 0.0 | 0.0 | 0.00 | 0.00 | 0.00 | 79 | 1015.5 |
| 20260505120258 | 59 | 202 | 1.0 | 1.0 | 0.00 | 0.00 | 0.00 | 80 | 1015.6 |
| 20260505115757 | 59 | 175 | 0.0 | 0.0 | 0.00 | 0.00 | 0.00 | 80 | 1015.5 |
| 20260505115255 | 59 | 148 | 2.0 | 2.0 | 0.00 | 0.00 | 0.00 | 79 | 1015.6 |
| 20260505114752 | 58 | 178 | 0.0 | 0.0 | 0.00 | 0.00 | 0.00 | 81 | 1015.7 |
| 20260505114248 | 58 | 150 | 0.0 | 1.0 | 0.00 | 0.00 | 0.00 | 81 | 1015.4 |
| 20260505113745 | 58 | 193 | 0.0 | 0.0 | 0.00 | 0.00 | 0.00 | 80 | 1015.5 |
| 20260505113241 | 58 | 193 | 0.0 | 0.0 | 0.00 | 0.00 | 0.00 | 80 | 1015.3 |
| 20260505112737 | 58 | 192 | 0.0 | 0.0 | 0.00 | 0.00 | 0.00 | 81 | 1015.6 |
| 20260505112235 | 58 | 174 | 0.0 | 1.0 | 0.00 | 0.00 | 0.00 | 82 | 1015.7 |
| 20260505111735 | 56 | 194 | 0.0 | 0.0 | 0.00 | 0.00 | 0.00 | 87 | 1015.7 |
| 20260505111231 | 55 | 162 | 0.0 | 0.0 | 0.00 | 0.00 | 0.00 | 89 | 1015.6 |
| 20260505110727 | 55 | 169 | 0.0 | 0.0 | 0.00 | 0.00 | 0.00 | 91 | 1015.7 |
| 20260505110225 | 53 | 181 | 0.0 | 0.0 | 0.00 | 0.00 | 0.00 | 92 | 1015.7 |
| 20260505102200 | 48 | 192 | 0.0 | 0.0 | 0.00 | 0.00 | 0.00 | 93 | 1015.4 |
| 20260505101659 | 48 | 192 | 0.0 | 0.0 | 0.00 | 0.00 | 0.00 | 93 | 1015.1 |
| 20260505101155 | 48 | 193 | 0.0 | 0.0 | 0.00 | 0.00 | 0.00 | 93 | 1015.0 |
| 20260505100651 | 48 | 181 | 0.0 | 0.0 | 0.00 | 0.00 | 0.00 | 93 | 1014.8 |
| 20260505100148 | 48 | 202 | 0.0 | 0.0 | 0.00 | 0.00 | 0.00 | 93 | 1015.1 |
| 20260505095644 | 48 | 203 | 0.0 | 0.0 | 0.00 | 0.00 | 0.00 | 93 | 1014.9 |
| 20260505095142 | 47 | 192 | 0.0 | 0.0 | 0.00 | 0.00 | 0.00 | 92 | 1014.7 |
| 20260505094637 | 47 | 192 | 0.0 | 0.0 | 0.00 | 0.00 | 0.00 | 92 | 1014.6 |
| 20260505094134 | 48 | 192 | 0.0 | 0.0 | 0.00 | 0.00 | 0.00 | 92 | 1014.7 |
| 20260505093630 | 47 | 192 | 0.0 | 0.0 | 0.00 | 0.00 | 0.00 | 92 | 1014.8 |
| 20260505093128 | 48 | 192 | 0.0 | 0.0 | 0.00 | 0.00 | 0.00 | 92 | 1014.7 |
| 20260505092625 | 48 | 192 | 0.0 | 0.0 | 0.00 | 0.00 | 0.00 | 92 | 1014.7 |
| 20260505092124 | 48 | 192 | 0.0 | 0.0 | 0.00 | 0.00 | 0.00 | 92 | 1014.7 |
| 20260505091620 | 47 | 192 | 0.0 | 0.0 | 0.00 | 0.00 | 0.00 | 92 | 1014.9 |
| 20260505091118 | 48 | 192 | 0.0 | 0.0 | 0.00 | 0.00 | 0.00 | 92 | 1014.8 |
| 20260505090615 | 48 | 192 | 0.0 | 0.0 | 0.00 | 0.00 | 0.00 | 92 | 1014.6 |
| 20260505090114 | 48 | 192 | 0.0 | 0.0 | 0.00 | 0.00 | 0.00 | 92 | 1015.0 |
| 20260505085610 | 48 | 192 | 0.0 | 0.0 | 0.00 | 0.00 | 0.00 | 91 | 1014.8 |
| 20260505085109 | 48 | 192 | 0.0 | 0.0 | 0.00 | 0.00 | 0.00 | 91 | 1014.9 |
| 20260505084606 | 48 | 192 | 0.0 | 0.0 | 0.00 | 0.00 | 0.00 | 91 | 1014.7 |
| 20260505084105 | 48 | 192 | 0.0 | 0.0 | 0.00 | 0.00 | 0.00 | 91 | 1014.8 |
| 20260505083602 | 48 | 219 | 0.0 | 0.0 | 0.00 | 0.00 | 0.00 | 91 | 1014.6 |
| 20260505083058 | 48 | 192 | 0.0 | 0.0 | 0.00 | 0.00 | 0.00 | 91 | 1014.7 |
| 20260505082554 | 49 | 192 | 0.0 | 0.0 | 0.00 | 0.00 | 0.00 | 91 | 1014.7 |
| 20260505082051 | 49 | 192 | 0.0 | 0.0 | 0.00 | 0.00 | 0.00 | 90 | 1014.7 |
| 20260505081547 | 49 | 192 | 0.0 | 0.0 | 0.00 | 0.00 | 0.00 | 90 | 1014.7 |
| 20260505081044 | 49 | 192 | 0.0 | 0.0 | 0.00 | 0.00 | 0.00 | 90 | 1014.9 |
| 20260505080540 | 49 | 192 | 0.0 | 0.0 | 0.00 | 0.00 | 0.00 | 90 | 1014.7 |
| 20260505080038 | 49 | 192 | 0.0 | 0.0 | 0.00 | 0.00 | 0.00 | 90 | 1014.9 |
| 20260505075533 | 49 | 192 | 0.0 | 0.0 | 0.00 | 0.00 | 0.00 | 89 | 1015.1 |
| 20260505075030 | 49 | 197 | 1.0 | 1.0 | 0.00 | 0.00 | 0.00 | 89 | 1014.7 |
| 20260505074527 | 50 | 195 | 0.0 | 0.0 | 0.00 | 0.00 | 0.00 | 89 | 1014.6 |
| 20260505074024 | 50 | 170 | 0.0 | 0.0 | 0.00 | 0.00 | 0.00 | 89 | 1014.7 |
| 20260505073522 | 49 | 192 | 0.0 | 0.0 | 0.00 | 0.00 | 0.00 | 88 | 1014.8 |
| 20260505073020 | 50 | 191 | 0.0 | 0.0 | 0.00 | 0.00 | 0.00 | 88 | 1014.6 |
| 20260505072515 | 50 | 192 | 0.0 | 0.0 | 0.00 | 0.00 | 0.00 | 88 | 1014.6 |
| 20260505072012 | 50 | 192 | 0.0 | 0.0 | 0.00 | 0.00 | 0.00 | 87 | 1014.5 |
| 20260505071507 | 50 | 192 | 0.0 | 0.0 | 0.00 | 0.00 | 0.00 | 87 | 1014.7 |
| 20260505071006 | 50 | 192 | 0.0 | 0.0 | 0.00 | 0.00 | 0.00 | 87 | 1014.6 |
| 20260505070503 | 51 | 191 | 0.0 | 0.0 | 0.00 | 0.00 | 0.00 | 86 | 1014.6 |
| 20260505065958 | 51 | 192 | 0.0 | 0.0 | 0.00 | 0.00 | 0.00 | 85 | 1014.8 |
| 20260505065455 | 51 | 192 | 0.0 | 0.0 | 0.00 | 0.00 | 0.00 | 85 | 1014.7 |
| 20260505064951 | 52 | 192 | 0.0 | 0.0 | 0.00 | 0.00 | 0.00 | 84 | 1014.8 |
| 20260505064448 | 52 | 192 | 0.0 | 0.0 | 0.00 | 0.00 | 0.00 | 84 | 1014.6 |
| 20260505063947 | 52 | 192 | 0.0 | 0.0 | 0.00 | 0.00 | 0.00 | 83 | 1014.6 |
| 20260505063443 | 53 | 192 | 0.0 | 0.0 | 0.00 | 0.00 | 0.00 | 82 | 1014.7 |
| 20260505062939 | 53 | 192 | 0.0 | 0.0 | 0.00 | 0.00 | 0.00 | 82 | 1014.9 |
| 20260505062437 | 54 | 191 | 0.0 | 0.0 | 0.00 | 0.00 | 0.00 | 81 | 1014.8 |
| 20260505061933 | 54 | 192 | 0.0 | 0.0 | 0.00 | 0.00 | 0.00 | 80 | 1014.8 |
| 20260505061432 | 54 | 192 | 0.0 | 0.0 | 0.00 | 0.00 | 0.00 | 80 | 1015.0 |
| 20260505060929 | 54 | 190 | 0.0 | 0.0 | 0.00 | 0.00 | 0.00 | 80 | 1014.9 |
| 20260505060426 | 54 | 193 | 0.0 | 0.0 | 0.00 | 0.00 | 0.00 | 80 | 1014.8 |
| 20260505055922 | 53 | 188 | 0.0 | 0.0 | 0.00 | 0.00 | 0.00 | 81 | 1014.9 |
| 20260505055418 | 52 | 180 | 0.0 | 0.0 | 0.00 | 0.00 | 0.00 | 82 | 1014.9 |
| 20260505054915 | 53 | 179 | 0.0 | 0.0 | 0.00 | 0.00 | 0.00 | 81 | 1014.9 |
| 20260505054412 | 53 | 179 | 0.0 | 0.0 | 0.00 | 0.00 | 0.00 | 81 | 1014.9 |
| 20260505053910 | 53 | 179 | 0.0 | 0.0 | 0.00 | 0.00 | 0.00 | 80 | 1014.9 |
| 20260505053407 | 53 | 180 | 0.0 | 0.0 | 0.00 | 0.00 | 0.00 | 79 | 1014.9 |
| 20260505052904 | 54 | 180 | 0.0 | 0.0 | 0.00 | 0.00 | 0.00 | 79 | 1015.0 |
| 20260505052401 | 54 | 180 | 0.0 | 0.0 | 0.00 | 0.00 | 0.00 | 78 | 1014.9 |
| 20260505051858 | 54 | 180 | 0.0 | 0.0 | 0.00 | 0.00 | 0.00 | 78 | 1015.0 |
| 20260505051355 | 55 | 188 | 0.0 | 0.0 | 0.00 | 0.00 | 0.00 | 77 | 1015.2 |
| 20260505050853 | 55 | 189 | 0.0 | 0.0 | 0.00 | 0.00 | 0.00 | 76 | 1015.1 |
| 20260505050351 | 54 | 188 | 0.0 | 0.0 | 0.00 | 0.00 | 0.00 | 77 | 1015.1 |
| 20260505041319 | 56 | 182 | 0.0 | 0.0 | 0.00 | 0.00 | 0.00 | 74 | 1015.6 |
| 20260505040816 | 56 | 175 | 0.0 | 0.0 | 0.00 | 0.00 | 0.00 | 74 | 1015.4 |
| 20260505040314 | 56 | 177 | 0.0 | 0.0 | 0.00 | 0.00 | 0.00 | 74 | 1015.5 |
| 20260505035810 | 57 | 180 | 0.0 | 0.0 | 0.00 | 0.00 | 0.00 | 72 | 1015.4 |
| 20260505035305 | 57 | 180 | 0.0 | 0.0 | 0.00 | 0.00 | 0.00 | 72 | 1015.4 |
| 20260505034803 | 57 | 172 | 0.0 | 0.0 | 0.00 | 0.00 | 0.00 | 72 | 1015.5 |
| 20260505034259 | 58 | 167 | 0.0 | 0.0 | 0.00 | 0.00 | 0.00 | 71 | 1015.4 |
| 20260505033756 | 58 | 189 | 0.0 | 0.0 | 0.00 | 0.00 | 0.00 | 71 | 1015.5 |
| 20260505033253 | 57 | 189 | 0.0 | 1.0 | 0.00 | 0.00 | 0.00 | 70 | 1015.4 |
| 20260505032751 | 57 | 183 | 1.0 | 2.0 | 0.00 | 0.00 | 0.00 | 71 | 1015.5 |
| 20260505032247 | 57 | 188 | 0.0 | 0.0 | 0.00 | 0.00 | 0.00 | 70 | 1015.5 |
| 20260505031744 | 58 | 180 | 0.0 | 0.0 | 0.00 | 0.00 | 0.00 | 70 | 1015.5 |
| 20260505031240 | 57 | 198 | 0.0 | 0.0 | 0.00 | 0.00 | 0.00 | 71 | 1015.5 |
| 20260505030738 | 58 | 174 | 0.0 | 0.0 | 0.00 | 0.00 | 0.00 | 70 | 1015.5 |
| 20260505030234 | 58 | 166 | 0.0 | 0.0 | 0.00 | 0.00 | 0.00 | 70 | 1015.6 |
| 20260505025730 | 58 | 178 | 0.0 | 0.0 | 0.00 | 0.00 | 0.00 | 70 | 1015.3 |
| 20260505025228 | 58 | 177 | 0.0 | 0.0 | 0.00 | 0.00 | 0.00 | 70 | 1015.5 |
| 20260505024726 | 58 | 175 | 0.0 | 0.0 | 0.00 | 0.00 | 0.00 | 70 | 1015.3 |
| 20260505024223 | 58 | 183 | 0.0 | 1.0 | 0.00 | 0.00 | 0.00 | 70 | 1015.4 |
| 20260505023720 | 58 | 174 | 0.0 | 0.0 | 0.00 | 0.00 | 0.00 | 70 | 1015.4 |
| 20260505023217 | 58 | 258 | 2.0 | 3.0 | 0.00 | 0.00 | 0.00 | 70 | 1015.6 |
| 20260505022715 | 58 | 171 | 0.0 | 1.0 | 0.00 | 0.00 | 0.00 | 71 | 1015.6 |
| 20260505022211 | 58 | 179 | 0.0 | 1.0 | 0.00 | 0.00 | 0.00 | 71 | 1015.6 |
| 20260505021708 | 57 | 205 | 1.0 | 1.0 | 0.00 | 0.00 | 0.00 | 72 | 1015.5 |
| 20260505021205 | 57 | 180 | 0.0 | 0.0 | 0.00 | 0.00 | 0.00 | 73 | 1015.6 |
| 20260505020701 | 57 | 192 | 0.0 | 0.0 | 0.00 | 0.00 | 0.00 | 73 | 1015.4 |
| 20260505020151 | 57 | 189 | 0.0 | 0.0 | 0.00 | 0.00 | 0.00 | 74 | 1015.6 |
| 20260505015649 | 57 | 169 | 0.0 | 0.0 | 0.00 | 0.00 | 0.00 | 74 | 1015.4 |
| 20260505015145 | 57 | 168 | 0.0 | 1.0 | 0.00 | 0.00 | 0.00 | 74 | 1015.7 |
| 20260505014642 | 57 | 184 | 0.0 | 0.0 | 0.00 | 0.00 | 0.00 | 74 | 1015.5 |
| 20260505014139 | 57 | 176 | 0.0 | 1.0 | 0.00 | 0.00 | 0.00 | 74 | 1015.5 |
| 20260505013637 | 57 | 200 | 0.0 | 1.0 | 0.00 | 0.00 | 0.00 | 74 | 1015.5 |
| 20260505013134 | 57 | 185 | 0.0 | 0.0 | 0.00 | 0.00 | 0.00 | 73 | 1015.3 |
| 20260505012632 | 58 | 185 | 0.0 | 0.0 | 0.00 | 0.00 | 0.00 | 73 | 1015.5 |
| 20260505012128 | 58 | 175 | 0.0 | 0.0 | 0.00 | 0.00 | 0.00 | 73 | 1015.4 |
| 20260505011624 | 58 | 183 | 0.0 | 0.0 | 0.00 | 0.00 | 0.00 | 72 | 1015.2 |
| 20260505011122 | 58 | 156 | 1.0 | 2.0 | 0.00 | 0.00 | 0.00 | 72 | 1015.2 |
| 20260505010616 | 58 | 178 | 0.0 | 0.0 | 0.00 | 0.00 | 0.00 | 72 | 1015.2 |
| 20260505010114 | 58 | 219 | 1.0 | 1.0 | 0.00 | 0.00 | 0.00 | 72 | 1015.0 |
| 20260505005609 | 58 | 171 | 2.0 | 2.0 | 0.00 | 0.00 | 0.00 | 72 | 1015.0 |
| 20260505005107 | 58 | 183 | 0.0 | 1.0 | 0.00 | 0.00 | 0.00 | 71 | 1014.8 |
| 20260505004604 | 58 | 183 | 3.0 | 3.0 | 0.00 | 0.00 | 0.00 | 71 | 1014.9 |
| 20260505004101 | 58 | 196 | 0.0 | 1.0 | 0.00 | 0.00 | 0.00 | 72 | 1014.7 |
| 20260505003558 | 58 | 179 | 0.0 | 0.0 | 0.00 | 0.00 | 0.00 | 71 | 1014.8 |
| 20260505003055 | 58 | 190 | 0.0 | 0.0 | 0.00 | 0.00 | 0.00 | 71 | 1014.7 |
| 20260505002555 | 58 | 180 | 0.0 | 0.0 | 0.00 | 0.00 | 0.00 | 71 | 1014.7 |
| 20260505002049 | 58 | 181 | 1.0 | 1.0 | 0.00 | 0.00 | 0.00 | 70 | 1014.5 |
| 20260505001546 | 58 | 183 | 1.0 | 1.0 | 0.00 | 0.00 | 0.00 | 70 | 1014.7 |
| 20260505001043 | 59 | 174 | 2.0 | 3.0 | 0.00 | 0.00 | 0.00 | 69 | 1014.5 |
| 20260505000540 | 59 | 173 | 0.0 | 0.0 | 0.00 | 0.00 | 0.00 | 69 | 1014.2 |
| 20260505000038 | 59 | 143 | 1.0 | 2.0 | 0.00 | 0.00 | 0.00 | 68 | 1014.3 |
| 20260504235534 | 59 | 160 | 0.0 | 0.0 | 0.00 | 0.00 | 0.00 | 67 | 1014.2 |
| 20260504235031 | 59 | 176 | 1.0 | 1.0 | 0.00 | 0.00 | 0.00 | 67 | 1014.0 |
| 20260504234528 | 60 | 172 | 0.0 | 0.0 | 0.00 | 0.00 | 0.00 | 67 | 1014.1 |
| 20260504234026 | 60 | 194 | 2.0 | 2.0 | 0.00 | 0.00 | 0.00 | 66 | 1014.0 |
| 20260504233521 | 60 | 234 | 2.0 | 3.0 | 0.00 | 0.00 | 0.00 | 65 | 1014.1 |
| 20260504233018 | 61 | 147 | 1.0 | 1.0 | 0.00 | 0.00 | 0.00 | 64 | 1013.6 |
| 20260504232515 | 61 | 117 | 2.0 | 3.0 | 0.00 | 0.00 | 0.00 | 63 | 1013.8 |
| 20260504232013 | 62 | 198 | 1.0 | 1.0 | 0.00 | 0.00 | 0.00 | 62 | 1013.8 |
| 20260504231509 | 62 | 199 | 0.0 | 1.0 | 0.00 | 0.00 | 0.00 | 62 | 1013.7 |
| 20260504231005 | 62 | 158 | 0.0 | 1.0 | 0.00 | 0.00 | 0.00 | 60 | 1013.4 |